When you browse on this site, cookies collect data to enhance your experience and personalize the content and advertising you see.
Visit our Privacy Policy to learn more. By continuing to use the site, you agree to this use of cookies and data.
  • Em Portugal
  • Lista de países
  • Para 7 dias
  • Temperatura da água
  • Mapas de satélite
  • Mapa do tempo
  • Widgets de tempo
  • user-avatar
    Iniciar Sessão

    Previsão horária em Jeziorno

    Hoje, 16 Julho, Terça-feira

    Tempo Temperatura Precipitação Vento Pressão Humidade
    00:00 +14°C° 0 mm 1 m/s 755 mmHg 94%
    01:00 +14°C° 0 mm 1 m/s 754 mmHg 94%
    02:00 +14°C° 0 mm 1 m/s 754 mmHg 93%
    03:00 +14°C° 0 mm 2 m/s 754 mmHg 93%
    04:00 +15°C° 0 mm 2 m/s 753 mmHg 92%
    05:00 +14°C° 0 mm 3 m/s 753 mmHg 88%
    06:00 +14°C° 0 mm 3 m/s 753 mmHg 83%
    07:00 +14°C° 0 mm 4 m/s 753 mmHg 79%
    08:00 +14°C° 0.4 mm 4 m/s 753 mmHg 80%
    09:00 +14°C° 0.4 mm 3 m/s 753 mmHg 82%
    10:00 +14°C° 0.4 mm 3 m/s 752 mmHg 84%
    11:00 +15°C° 0.8 mm 4 m/s 752 mmHg 82%
    12:00 +18°C° 0.8 mm 4 m/s 752 mmHg 80%
    13:00 +19°C° 0.8 mm 5 m/s 752 mmHg 78%
    14:00 +19°C° 0.2 mm 5 m/s 752 mmHg 73%
    15:00 +19°C° 0.2 mm 4 m/s 752 mmHg 69%
    16:00 +19°C° 0.2 mm 4 m/s 752 mmHg 64%
    17:00 +18°C° 0 mm 3 m/s 752 mmHg 68%
    18:00 +17°C° 0 mm 2 m/s 752 mmHg 73%
    19:00 +16°C° 0 mm 1 m/s 752 mmHg 77%
    20:00 +15°C° 0 mm 2 m/s 752 mmHg 79%
    21:00 +15°C° 0 mm 2 m/s 752 mmHg 81%
    22:00 +13°C° 0 mm 3 m/s 752 mmHg 83%
    23:00 +13°C° 0.1 mm 3 m/s 752 mmHg 84%

    Amanhã, 17 Julho, Quarta-feira

    Tempo Temperatura Precipitação Vento Pressão Humidade
    00:00 +13°C° 0.1 mm 3 m/s 752 mmHg 86%
    01:00 +13°C° 0.1 mm 4 m/s 752 mmHg 88%
    02:00 +12°C° 0 mm 4 m/s 752 mmHg 89%
    03:00 +12°C° 0 mm 4 m/s 752 mmHg 90%
    04:00 +11°C° 0 mm 4 m/s 751 mmHg 92%
    05:00 +12°C° 0.2 mm 5 m/s 752 mmHg 89%
    06:00 +14°C° 0.2 mm 6 m/s 752 mmHg 86%
    07:00 +15°C° 0.2 mm 7 m/s 752 mmHg 83%
    08:00 +15°C° 0.3 mm 7 m/s 752 mmHg 80%
    09:00 +16°C° 0.3 mm 6 m/s 753 mmHg 78%
    10:00 +17°C° 0.3 mm 6 m/s 753 mmHg 75%
    11:00 +17°C° 0.1 mm 6 m/s 753 mmHg 71%
    12:00 +19°C° 0.1 mm 6 m/s 753 mmHg 66%
    13:00 +19°C° 0.1 mm 6 m/s 753 mmHg 61%
    14:00 +19°C° 0 mm 6 m/s 753 mmHg 63%
    15:00 +19°C° 0 mm 6 m/s 753 mmHg 64%
    16:00 +17°C° 0 mm 6 m/s 753 mmHg 66%
    17:00 +17°C° 0 mm 6 m/s 753 mmHg 72%
    18:00 +16°C° 0 mm 5 m/s 753 mmHg 77%
    19:00 +15°C° 0 mm 4 m/s 753 mmHg 83%
    20:00 +15°C° 0 mm 4 m/s 754 mmHg 84%
    21:00 +14°C° 0 mm 4 m/s 754 mmHg 86%
    22:00 +14°C° 0 mm 4 m/s 754 mmHg 88%
    23:00 +13°C° 0 mm 4 m/s 754 mmHg 91%

    Depois de amanhã, 18 Julho, Quinta-feira

    Tempo Temperatura Precipitação Vento Pressão Humidade
    00:00 +13°C° 0 mm 3 m/s 754 mmHg 94%
    01:00 +12°C° 0 mm 3 m/s 754 mmHg 97%
    02:00 +12°C° 0 mm 3 m/s 754 mmHg 97%
    03:00 +12°C° 0 mm 3 m/s 754 mmHg 97%
    04:00 +12°C° 0 mm 3 m/s 754 mmHg 97%
    05:00 +14°C° 0 mm 3 m/s 754 mmHg 92%
    06:00 +16°C° 0 mm 3 m/s 754 mmHg 86%
    07:00 +18°C° 0 mm 4 m/s 755 mmHg 81%
    08:00 +19°C° 0 mm 4 m/s 755 mmHg 75%
    09:00 +20°C° 0 mm 4 m/s 755 mmHg 69%
    10:00 +21°C° 0 mm 4 m/s 755 mmHg 62%
    11:00 +22°C° 0 mm 4 m/s 755 mmHg 61%
    12:00 +22°C° 0 mm 4 m/s 755 mmHg 59%
    13:00 +22°C° 0 mm 4 m/s 755 mmHg 57%
    14:00 +22°C° 0 mm 4 m/s 755 mmHg 59%
    15:00 +22°C° 0 mm 4 m/s 755 mmHg 61%
    16:00 +21°C° 0 mm 4 m/s 755 mmHg 62%
    17:00 +20°C° 0 mm 3 m/s 755 mmHg 69%
    18:00 +19°C° 0 mm 3 m/s 755 mmHg 76%
    19:00 +17°C° 0 mm 2 m/s 755 mmHg 83%
    20:00 +16°C° 0 mm 1 m/s 755 mmHg 86%
    21:00 +15°C° 0 mm 1 m/s 755 mmHg 89%
    22:00 +12°C° 0 mm 0 m/s 756 mmHg 92%
    23:00 +12°C° 0 mm 0 m/s 756 mmHg 93%

    19 Julho, Sexta-feira

    Tempo Temperatura Precipitação Vento Pressão Humidade
    00:00 +12°C° 0 mm 0 m/s 756 mmHg 93%
    01:00 +11°C° 0 mm 0 m/s 756 mmHg 93%
    02:00 +11°C° 0 mm 0 m/s 756 mmHg 92%
    03:00 +11°C° 0 mm 0 m/s 756 mmHg 92%
    04:00 +11°C° 0 mm 0 m/s 756 mmHg 92%
    05:00 +13°C° 0 mm 0 m/s 756 mmHg 86%
    06:00 +15°C° 0 mm 0 m/s 756 mmHg 81%
    07:00 +17°C° 0 mm 0 m/s 756 mmHg 75%
    08:00 +18°C° 0 mm 0 m/s 756 mmHg 69%
    09:00 +20°C° 0 mm 0 m/s 756 mmHg 63%
    10:00 +22°C° 0 mm 0 m/s 756 mmHg 56%
    11:00 +22°C° 0 mm 0 m/s 756 mmHg 55%
    12:00 +23°C° 0 mm 0 m/s 756 mmHg 54%
    13:00 +24°C° 0 mm 0 m/s 756 mmHg 52%
    14:00 +25°C° 0.1 mm 1 m/s 756 mmHg 54%
    15:00 +25°C° 0.1 mm 1 m/s 755 mmHg 56%
    16:00 +25°C° 0.1 mm 1 m/s 755 mmHg 57%
    17:00 +24°C° 0.3 mm 1 m/s 755 mmHg 64%
    18:00 +22°C° 0.3 mm 1 m/s 755 mmHg 71%
    19:00 +20°C° 0.3 mm 2 m/s 755 mmHg 78%
    20:00 +19°C° 0 mm 2 m/s 756 mmHg 80%
    21:00 +18°C° 0 mm 2 m/s 756 mmHg 82%
    22:00 +16°C° 0 mm 2 m/s 756 mmHg 84%
    23:00 +16°C° 0 mm 2 m/s 756 mmHg 85%

    20 Julho, Sábado

    Tempo Temperatura Precipitação Vento Pressão Humidade
    00:00 +16°C° 0 mm 2 m/s 756 mmHg 86%
    01:00 +15°C° 0 mm 2 m/s 756 mmHg 87%
    02:00 +15°C° 0 mm 1 m/s 756 mmHg 87%
    03:00 +15°C° 0 mm 1 m/s 756 mmHg 87%
    04:00 +14°C° 0 mm 0 m/s 756 mmHg 87%
    05:00 +16°C° 0 mm 1 m/s 756 mmHg 84%
    06:00 +18°C° 0 mm 1 m/s 757 mmHg 82%
    07:00 +19°C° 0 mm 1 m/s 757 mmHg 80%
    08:00 +19°C° 0.1 mm 1 m/s 757 mmHg 81%
    09:00 +18°C° 0.1 mm 2 m/s 757 mmHg 82%
    10:00 +18°C° 0.1 mm 2 m/s 757 mmHg 83%
    11:00 +20°C° 0 mm 2 m/s 757 mmHg 75%
    12:00 +24°C° 0 mm 2 m/s 757 mmHg 66%
    13:00 +26°C° 0 mm 2 m/s 757 mmHg 57%
    14:00 +25°C° 0.3 mm 2 m/s 757 mmHg 60%
    15:00 +25°C° 0.3 mm 2 m/s 757 mmHg 62%
    16:00 +25°C° 0.3 mm 2 m/s 757 mmHg 64%
    17:00 +24°C° 0.4 mm 2 m/s 757 mmHg 71%
    18:00 +23°C° 0.4 mm 2 m/s 757 mmHg 77%
    19:00 +21°C° 0.4 mm 2 m/s 757 mmHg 83%
    20:00 +20°C° 0 mm 2 m/s 757 mmHg 86%
    21:00 +19°C° 0 mm 2 m/s 757 mmHg 88%
    22:00 +18°C° 0 mm 2 m/s 757 mmHg 90%
    23:00 +17°C° 0 mm 2 m/s 757 mmHg 91%

    21 Julho, Domingo

    Tempo Temperatura Precipitação Vento Pressão Humidade
    00:00 +18°C° 0 mm 1 m/s 757 mmHg 91%
    01:00 +18°C° 0 mm 1 m/s 757 mmHg 91%
    02:00 +18°C° 0 mm 1 m/s 757 mmHg 92%
    03:00 +16°C° 0 mm 1 m/s 757 mmHg 92%
    04:00 +16°C° 0 mm 1 m/s 757 mmHg 92%
    05:00 +18°C° 0 mm 1 m/s 757 mmHg 90%
    06:00 +19°C° 0 mm 2 m/s 757 mmHg 88%
    07:00 +20°C° 0 mm 2 m/s 757 mmHg 85%
    08:00 +20°C° 0.1 mm 2 m/s 758 mmHg 81%
    09:00 +21°C° 0.1 mm 2 m/s 758 mmHg 77%
    10:00 +23°C° 0.1 mm 2 m/s 758 mmHg 73%
    11:00 +24°C° 0.3 mm 2 m/s 758 mmHg 69%
    12:00 +25°C° 0.3 mm 2 m/s 758 mmHg 64%
    13:00 +26°C° 0.3 mm 2 m/s 758 mmHg 60%
    14:00 +25°C° 0.1 mm 2 m/s 758 mmHg 60%
    15:00 +25°C° 0.1 mm 2 m/s 758 mmHg 61%
    16:00 +25°C° 0.1 mm 2 m/s 758 mmHg 62%
    17:00 +24°C° 0.4 mm 2 m/s 758 mmHg 68%
    18:00 +23°C° 0.4 mm 1 m/s 758 mmHg 75%
    19:00 +22°C° 0.4 mm 1 m/s 758 mmHg 82%
    20:00 +20°C° 0.1 mm 1 m/s 758 mmHg 85%
    21:00 +19°C° 0.1 mm 1 m/s 758 mmHg 88%
    22:00 +18°C° 0.1 mm 1 m/s 758 mmHg 91%
    23:00 +16°C° 0 mm 1 m/s 758 mmHg 91%
    Mostrar mais